www.pogodaiklimat.ru

Погода и климат >> Архив погоды >> Индия >> Pune


ПОГОДА в Pune

  • Прогноз погоды в Pune
  • Монитор погоды в Pune
  • Климат города

АРХИВ ПОГОДЫ в Pune

Время (UTC), дата Ветер
(напр.,м/с)
 
Видим.   Явления Облачность Т
(С)
Тd
(С)
f
(%)
Тe
(С)
Тes
(С)
Комфортность P
(гПа)
Po
(гПа)
Тmin
(С)
Tmax
(С)
R
(мм)
R24
(мм)
S
(см)
12 11.12 З 2 4000 м ясно +26.8 +18.0 59 +31 +32 душно 1010.6 949.0 +30.8
15 11.12 З 2 4000 м 4/1 1500 м
[Sc Ac trans Ci fib]
+22.4 +19.1 82 +28 +28 душно 1014.2 951.6
18 11.12 штиль 0 4000 м ясно +20.0 +17.2 84 +23 +23 комфорт 1014.9 951.6
21 11.12 штиль 0 4000 м ясно +17.2 +16.5 96 +17 +17 1014.3 950.7
00 12.12 штиль 0 4000 м ясно +16.2 +15.5 96 +16 +16 1014.5 950.7
03 12.12 штиль 0 4000 м мгла ясно +16.8 +16.1 96 +17 +19 1016.8 952.9 +14.4
06 12.12 Ю 1 10 км ясно +25.0 +15.1 54 +28 +42 жарко 1014.4 952.2
09 12.12 С 1 10 км 5/5 800 м
[Sc]
+28.3 +16.3 48 +32 +37 душно 1010.0 948.9
12 12.12 З 1 10 км 3/3 800 м
[Sc]
+25.8 +17.3 59 +30 +30 душно 1011.2 949.4 +29.2
18 12.12 штиль 0 4000 м ясно +18.0 +16.4 90 +18 +18 1015.8 952.1
21 12.12 штиль 0 4000 м ясно +16.2 +15.1 93 +16 +16 1015.1 951.0
00 13.12 штиль 0 4000 м ясно +14.2 +13.8 97 +14 +14 1015.8 951.4
03 13.12 штиль 0 4000 м мгла {туман} ясно +17.6 +16.3 92 +18 +20 1016.9 953.1 +13.8
06 13.12 В 1 4000 м ясно +25.6 +15.5 54 +29 +43 душно 1014.3 952.4
09 13.12 Ю 1 10 км 4/4 800 м
[Cu Sc]
+29.2 +12.9 37 +31 +37 жарко 1010.2 949.2
12 13.12 З 2 10 км 3/3 800 м
[Sc]
+25.8 +15.7 54 +29 +29 душно 1011.9 950.1 +30.3
15 13.12 З 1 4000 м ясно +20.2 +16.7 80 +25 +25 комфорт 1014.9 951.9
18 13.12 штиль 0 4000 м ясно +16.6 +14.9 90 +16 +16 1015.9 952.0
21 13.12 штиль 0 4000 м ясно +15.0 +14.0 94 +15 +15 1015.3 951.0
00 14.12 штиль 0 4000 м ясно +14.2 +13.8 97 +14 +14 1014.8 950.6
03 14.12 штиль 0 4000 м мгла {туман} 3/0
[Ci fib]
+16.8 +16.1 96 +17 +19 1016.6 942.7 +12.6
06 14.12 З 1 10 км 3/0
[Ci fib]
+25.2 +15.7 56 +28 +41 жарко 1015.2 953.1
09 14.12 З 2 10 км 6/4 800 м
[Cu Sc Ac trans Ci fib]
+29.9 +12.1 33 +31 +35 жарко 1011.1 950.1
12 14.12 З 2 10 км 6/1 800 м
[Sc Ac trans Ci fib]
+27.0 +15.9 51 +30 +30 душно 1011.6 950.0 +31.3
15 14.12 З 1 4000 м 5/1 800 м
[Sc Ci fib]
+20.6 +16.3 76 +25 +25 комфорт 1014.9 951.9
18 14.12 штиль 0 4000 м 5/4 800 м
[Sc Ci fib]
+18.0 +16.1 89 +18 +18 1015.8 952.1
21 14.12 штиль 0 4000 м 6/5 800 м
[Sc Ac trans]
+16.8 +15.1 90 +17 +17 1014.6 950.8
00 15.12 штиль 0 4000 м 1/0
[Ci fib]
+15.8 +14.8 94 +16 +16 1014.8 950.8
03 15.12 штиль 0 4000 м мгла {туман} 3/1 800 м
[Sc Ci fib]
+17.0 +16.0 94 +17 +19 1017.3 953.2 +14.6
06 15.12 Ю 1 4000 м мгла {туман} 8/0
[Ci fib]
+26.1 +16.8 57 +30 +41 душно 1014.8 953.0
09 15.12 В 1 10 км 8/5 800 м
[Cu Sc Ci fib]
+29.0 +18.5 53 +34 +39 очень
душно
1011.6 950.4
12 15.12 З 1 4000 м 8/8 800 м
[Cu Sc]
+26.4 +19.2 65 +32 +32 очень
душно
1012.4 950.8 +29.1
15 15.12 З 1 4000 м 5/3 800 м
[Sc Ci fib]
+21.8 +18.1 80 +27 +27 душно 1013.0 953.1
18 15.12 штиль 0 4000 м 5/3 800 м
[Sc Ci fib]
+19.2 +17.5 90 +21 +21 комфорт 1016.8 953.4
21 15.12 З 1 4000 м 5/3 800 м
[Sc Ci fib]
+17.7 +17.1 96 +19 +19 1016.1 952.4
00 16.12 штиль 0 4000 м мгла {туман} 4/1 800 м
[Sc Ci fib]
+16.3 +16.0 98 +16 +16 1016.1 952.2
03 16.12 штиль 0 4000 м мгла {туман, морось} ясно +17.8 +16.8 94 +18 +20 1018.3 954.5 +15.2
06 16.12 С 1 4000 м ясно +26.6 +14.8 48 +29 +42 жарко 1016.1 954.2
09 16.12 В 1 10 км 4/1 800 м
[Sc Ci fib]
+29.2 +11.2 33 +30 +39 жарко 1012.9 951.8
12 16.12 В 1 10 км 4/1 800 м
[Sc Ac trans Ci fib]
+27.0 +11.2 37 +28 +28 жарко 1013.3 951.6 +30.1
15 16.12 штиль 0 4000 м ясно +20.2 +15.3 73 +22 +22 комфорт 1016.8 953.6
18 16.12 штиль 0 4000 м 3/3 800 м
[Sc]
+18.2 +15.6 85 +18 +18 1018.2 954.6
21 16.12 штиль 0 4000 м ясно +16.6 +15.3 92 +16 +16 1017.7 953.6
00 17.12 штиль 0 4000 м ясно +14.8 +13.1 90 +14 +14 1017.9 953.4
03 17.12 штиль 0 4000 м мгла {туман} 6/0
[Ci fib]
+16.6 +14.3 86 +16 +19 1019.5 955.3 +13.5
06 17.12 В 1 4000 м мгла {туман} 8/0
[Ci fib]
+25.4 +15.2 53 +28 +39 жарко 1017.8 955.6
09 17.12 В 2 10 км 8/1 800 м
[Sc Ci fib]
+27.1 +11.3 37 +28 +35 жарко 1014.1 952.6
12 17.12 В 2 10 км 9/1 800 м
[Sc Ac trans Ci fib]
+25.2 +13.2 47 +27 +27 жарко 1014.3 952.4 +28.7
15 17.12 штиль 0 4000 м 8/3 800 м
[Sc Ci fib]
+18.8 +14.1 74 +20 +20 1017.8 954.2
18 17.12 штиль 0 4000 м 6/1 800 м
[Sc Ci fib]
+18.0 +12.9 72 +18 +18 1018.5 954.7
21 17.12 штиль 0 4000 м 5/0
[Ci fib]
+15.2 +13.1 87 +15 +15 1018.4 954.1
00 18.12 штиль 0 4000 м 4/0
[Ci fib]
+15.0 +12.6 86 +15 +15 1018.2 953.7
03 18.12 штиль 0 10 км мгла 6/0
[Ci fib]
+16.6 +13.7 83 +16 +19 1020.6 956.4 +14.3
06 18.12 В 2 10 км 8/0
[Ci fib]
+25.2 +12.2 44 +27 +36 жарко 1018.7 956.5

 

Местоположение метеостанции Pune (Maharashtra, Индия): широта 18.53 долгота 73.85 высота над уровнем моря 559 м.

В архиве по умолчанию представлена погода в Pune за последнюю неделю. Архивные данные за месяц целиком и за предыдущие месяцы, начиная с января 2011 года, Вы можете получить, выбрав интересующий диапазон дат из раскрывающегося списка и нажав кнопку "Ввод!".

Внимание! Время в таблицах - всемирное. Для получения местного времени необходимо прибавить поправку, которая в Pune равна 5.5 ч.

Смотрите также архив погоды в соседних городах и на ближайших метеорологических станциях:

Погода в Bhira (Maharashtra, Индия) (48 км)
Погода в Mahabaleshwar (Maharashtra, Индия) (69 км)
Погода в Alibag (Maharashtra, Индия) (104 км)
Погода в Harnai (Maharashtra, Индия) (112 км)
Погода в Satara (Maharashtra, Индия) (114 км)
Погода в Mumbai Colaba (Maharashtra, Индия) (116 км)
Погода в Ahmednagar (Maharashtra, Индия) (117 км)
Погода в Mumbai (Maharashtra, Индия) (124 км)
Погода в Jeur (Maharashtra, Индия) (141 км)
Погода в Nashik (Maharashtra, Индия) (164 км)

Пояснения к столбцам:

Ветер - указаны скорость ветра в м/с - средняя за 10 мин, порывы в срок и между сроками (в фигурных скобках) и направление, откуда дует ветер: С - северный, СВ - северо-восточный, В - восточный, ЮВ - юго-восточный, Ю - южный, ЮЗ - юго-западный, З - западный, СЗ - северо-западный.
Видимость - горизонтальная дальность видимости в метрах или километрах. При видимости от 1 до 10 км при отсутствии осадков обычно наблюдается дымка, при ухудшении видимости до 1 км и менее - туман. В сухую погоду видимость может ухудшаться дымом, пылью или мглою.
Явления - указаны атмосферные явления, наблюдавшиеся в срок или в последний час перед сроком; фигурными скобками обозначены явления, наблюдавшиеся между сроками (за 1-3 часа до срока); квадратными скобками обозначены град или гололедные отложения с указанием их диаметра в мм.
Облачность - указаны через наклонную черту общая и нижняя облачность в баллах и высота нижней границы облаков в метрах; квадратными скобками обозначены формы облаков: Ci - перистые, Cs - перисто-слоистые, Cc - перисто-кучевые, Ac - высококучевые, As - высокослоистые, Sc - слоисто-кучевые, Ns - слоисто-дождевые, Cu - кучевые, Cb - кучево-дождевые. Подробнее классификацию облаков см. в Атласе облаков (PDF).
T - Температура воздуха - температура, измеренная на высоте 2 м над землей.
Td - Температура точки росы - температура, при понижении до которой содержащийся в воздухе водяной пар достигнет насыщения.
f - Относительная влажность воздуха - влажноcть воздуха, измеренная на высоте 2 м над землей.
Te - Эффективная температура - температура, которую ощущает одетый по сезону человек в тени. Характеристика душности погоды. При расчете учитывается влияние влажности воздуха и скорости ветра на теплоощущения человека.
Tes - Эффективная температура на солнце - температура, которую ощущает человек, с поправкой на солнечный нагрев. Характеристика знойности погоды. Зависит от высоты солнца над горизонтом, облачности и скорости ветра. Ночью, в пасмурную погоду, а также при ветре 12 м/с и более поправка равна нулю.
P - Атмосферное давление - приведенное к уровню моря атмосферное давление.
Po - Атмосферное давление - измеренное на уровне метеостанции атмосферное давление.
Tmin - Минимальная температура - минимум температуры воздуха на высоте 2 м над землей.
Tmax - Максимальная температура - максимум температуры воздуха на высоте 2 м над землей.
R - Количество осадков - Количество выпавших осадков за период времени, мм. При наведении курсора мыши на число - период времени, за который выпало указанное количество осадков.
R24 - Количество осадков - Количество выпавших осадков за 24 часа, мм.
S - Снежный покров - Высота снежного покрова, см. При наведении курсора мыши на число - состояние снежного покрова и степень покрытия местности в баллах.